#timestamp,LO_Frequency,Hit,StdDev 
1550080815.2,286047000.2,N
1550080835.1,286047001.0,N
1550080836.0,286047001.0,N
1550080855.8,286046999.7,N
1550080875.6,286047002.4,N
1550080895.5,286047000.5,N
1550080915.3,286046998.2,N
1550080935.1,286047000.8,N
1550080955.9,286047000.7,N
1550080975.7,286046998.3,N
1550080995.6,286047000.7,N
1550081015.4,286047000.2,N
1550081035.2,286047002.7,N
1550081055.1,286047002.2,N
1550081056.0,286047002.2,N
1550081075.8,286047002.5,N
1550081095.6,286047002.5,N
1550081115.5,286047002.3,N
1550081135.3,286046999.7,N
1550081155.2,286047001.6,N
1550081175.9,286047002.3,N
1550081195.7,286047002.1,N
1550081215.6,286047002.6,N
1550081235.4,286046999.9,N
1550081255.2,286046999.7,N
1550081275.1,286047002.2,N
1550081276.0,286047002.2,N
1550081295.8,286047000.1,N
1550081315.7,286047000.3,N
1550081335.5,286047000.3,N
1550081355.3,286046998.5,N
1550081375.2,286047000.6,N
1550081395.0,286047001.0,N
1550081395.9,286047001.0,N
1550081415.8,286047000.7,N
1550081435.6,286046998.5,N
1550081455.4,286047000.6,N
1550081475.3,286047000.6,N
1550081495.1,286047000.3,N
1550081515.8,286047002.8,N
1550081535.7,286046999.7,N
1550081555.5,286047002.2,N
1550081575.4,286047002.0,N
1550081595.2,286047001.4,N
1550081615.0,286047003.6,N
1550081615.9,286047003.6,N
1550081635.8,286047006.0,Y
1550081655.6,286047003.7,P
1550081675.5,286047004.1,P
1550081695.3,286047003.8,N
1550081715.1,286047003.9,Y
1550081735.9,286047000.7,P
1550081755.7,286046998.8,N
1550081775.5,286046996.7,N
1550081795.4,286046996.8,N
1550081815.2,286046999.6,N
1550081835.1,286046996.5,N
1550081836.0,286046996.5,N
1550081855.8,286046999.4,N
1550081875.6,286046997.3,N
1550081895.5,286046997.7,N
1550081915.3,286046997.5,N
1550081935.2,286046995.4,N
1550081955.9,286046995.3,N
1550081975.7,286046995.4,N
1550081995.6,286046995.2,N
1550082015.4,286046998.0,N
1550082035.2,286046995.7,N
1550082055.1,286046995.0,N
1550082056.0,286046995.0,N
1550082075.8,286046995.8,N
1550082095.7,286046998.0,N
1550082115.5,286046997.0,N
1550082135.3,286046997.9,N
1550082155.2,286046997.5,N
1550082175.0,286046997.8,N
1550082175.9,286046997.8,N
1550082195.8,286046993.4,Y
1550082215.6,286046998.8,P
1550082235.4,286046999.5,N
1550082255.3,286046998.9,N
1550082275.1,286046996.9,Y
1550082295.9,286046998.3,P
1550082315.7,286046998.8,P
1550082335.5,286046998.5,P
1550082355.4,286046999.8,N
1550082375.2,286046999.7,N
1550082395.0,286047000.3,N
1550082395.9,286047000.3,N
1550082415.8,286047002.6,Y
1550082435.6,286047003.9,P
1550082455.5,286047001.3,N
1550082475.3,286047002.4,N
1550082495.1,286046999.7,N
1550082515.9,286047000.2,N
1550082535.7,286047000.9,N
1550082555.6,286047002.7,N
1550082575.4,286047002.4,N
1550082595.2,286047000.7,N
1550082615.1,286047002.4,N
1550082616.0,286047002.4,N
1550082635.8,286046999.8,N
1550082655.6,286047000.5,N
1550082675.5,286047000.2,N
1550082695.3,286047002.6,N
1550082715.2,286047000.0,N
1550082735.9,286046999.3,N
1550082755.7,286046995.3,Y
1550082775.6,286046992.0,P
1550082795.4,286046992.6,N
1550082815.2,286046990.6,N
1550082835.1,286046988.5,N
1550082836.0,286046988.5,N
1550082855.8,286046991.0,N
1550082875.7,286046986.9,Y
1550082895.5,286046993.3,P
1550082915.3,286046991.9,P
1550082935.2,286046992.2,P
1550082955.0,286046994.4,Y
1550082955.9,286046994.4,P
1550082975.7,286046999.8,N
1550082995.6,286047004.4,N
1550083015.4,286047001.4,N
1550083035.3,286047003.7,N
1550083055.1,286047005.4,N
1550083056.0,286047005.4,N
1550083075.8,286047006.7,N
1550083095.7,286047008.8,N
1550083115.5,286047006.5,N
1550083135.3,286047008.7,N
1550083155.2,286047009.0,N
1550083175.0,286047004.7,N
1550083175.9,286047004.7,N
1550083195.8,286047008.6,N
1550083215.6,286047008.8,N
1550083235.4,286047006.2,N
1550083255.3,286047006.2,N
1550083275.1,286047009.2,N
1550083295.8,286047008.5,N
1550083315.7,286047008.9,N
1550083335.5,286047010.3,N
1550083355.4,286047009.7,N
1550083375.2,286047011.7,N
1550083395.0,286047009.5,N
1550083395.9,286047009.5,N
1550083415.8,286047010.6,N
1550083435.6,286047010.4,N
1550083455.4,286047007.8,N
1550083475.3,286047009.9,N
1550083495.1,286047009.8,N
1550083515.9,286047009.7,Y
1550083535.7,286047002.5,P
1550083555.5,286047001.3,N
1550083575.4,286047002.7,N
1550083595.2,286046999.9,N
1550083615.0,286047002.7,N
1550083615.9,286047002.7,N
1550083635.8,286047000.0,N
1550083655.6,286047000.6,N
1550083675.5,286047000.5,N
1550083695.3,286046999.7,N
1550083715.1,286046999.9,N
1550083735.9,286046999.7,N
1550083755.7,286047000.3,N
1550083775.5,286047000.6,N
1550083795.4,286046999.9,N
1550083815.2,286047002.0,N
1550083835.0,286047001.8,N
1550083835.9,286047001.8,N
1550083855.8,286047003.6,N
1550083875.6,286047003.9,N
1550083895.5,286047003.8,N
1550083915.3,286047001.3,N
1550083935.1,286047003.8,N
1550083955.9,286047001.7,N
1550083975.7,286047003.9,N
1550083995.5,286047001.3,N
1550084015.4,286047004.0,N
1550084035.2,286047005.8,Y
1550084055.1,286047004.2,P
1550084056.0,286047004.2,P
1550084075.8,286047001.4,N
1550084095.6,286047001.7,N
1550084115.5,286047001.6,N
1550084135.3,286047001.4,N
1550084155.1,286047004.0,Y
1550084175.9,286047000.0,P
1550084195.7,286046999.8,N
1550084215.6,286047002.4,N
1550084235.4,286046999.9,N
1550084255.2,286047000.1,N
1550084275.1,286046998.3,N
1550084276.0,286046998.3,N
1550084295.8,286047001.2,N
1550084315.6,286046998.3,N
1550084335.5,286046998.2,N
1550084355.3,286046998.8,N
1550084375.2,286046999.2,N
1550084395.9,286047000.7,N
